Wind_Speed
36 36 39 40 38 42 41 41 41 43 44 45 44 41 40 40 40 37 34 29 26 24 22 22 22 19 16 15 13 13 11 11 9 9 10 11 11 10 10 9 11 8 4 3 7
39 39 39 41 43 46 45 46 44 45 46 47 48 47 43 42 41 41 40 36 31 27 24 23 24 23 20 16 14 12 12 11 11 10 11 12 12 12 11 9 12 8 4 2 6
44 44 41 42 41 46 48 47 47 48 48 49 50 50 50 46 44 43 43 42 38 33 28 25 25 25 23 20 17 13 13 12 12 12 12 13 13 12 12 12 11 6 4 5 7
50 46 45 46 44 44 45 46 47 51 49 52 52 52 52 52 47 45 44 43 42 39 34 30 28 27 26 23 21 16 15 14 14 14 14 15 15 13 12 13 10 7 6 7 10
51 50 49 47 49 48 50 51 53 52 56 56 55 55 54 52 51 47 45 44 44 43 40 35 32 29 27 25 24 19 17 16 15 16 15 17 17 14 15 13 10 8 5 8 11
56 51 51 51 51 51 53 56 58 59 58 58 58 57 55 53 51 50 48 45 45 44 44 41 37 33 29 27 26 22 19 17 17 17 16 18 18 15 18 15 12 9 6 8 10
59 55 52 53 53 53 53 55 58 58 57 55 55 57 57 55 52 50 49 47 45 45 45 45 43 39 32 30 27 24 23 20 19 19 18 19 19 19 14 17 13 10 6 8 12
61 57 55 54 55 53 54 53 55 54 53 51 51 54 56 55 55 53 48 48 46 44 45 45 45 44 39 34 31 28 26 22 21 22 20 20 17 24 17 18 14 11 7 8 12
58 58 55 55 56 55 54 53 54 52 51 50 49 49 51 53 54 54 53 49 49 47 43 45 46 47 44 40 36 31 28 26 25 25 23 21 20 25 20 20 17 13 8 7 10
53 55 55 55 56 57 56 56 54 52 52 49 48 46 47 46 49 54 53 51 49 49 49 44 45 46 46 42 36 33 33 31 27 26 26 23 22 27 23 19 18 15 11 8 10
53 50 52 53 55 57 57 57 57 55 53 50 48 45 42 42 42 48 51 53 52 50 49 50 47 44 44 43 43 42 36 31 28 28 29 27 24 28 27 19 20 17 14 9 11
53 52 50 51 55 56 57 57 58 58 57 53 51 48 45 42 40 42 45 47 51 53 51 50 52 47 47 47 46 43 38 33 33 32 30 30 25 29 29 21 23 19 16 11 10
51 52 51 52 54 55 57 57 58 59 60 56 54 50 48 47 44 43 44 45 47 51 54 52 51 51 49 49 49 46 41 36 37 35 32 31 27 30 30 24 26 19 19 12 10
45 47 51 52 53 52 52 54 57 57 60 58 54 54 51 49 48 46 46 47 50 51 52 55 53 52 54 53 52 51 44 39 39 39 36 32 31 29 31 29 26 21 19 14 10
47 47 46 48 53 51 49 49 49 52 58 58 56 52 51 50 47 46 46 47 49 50 50 52 55 54 55 55 54 51 46 44 43 42 40 34 37 26 30 29 27 24 22 17 12
53 52 50 44 46 50 51 49 48 51 59 58 58 54 55 52 50 48 46 46 46 48 50 52 53 55 60 59 56 54 50 47 45 44 45 34 37 26 26 32 31 27 23 19 14
49 48 53 50 47 46 50 52 52 58 57 59 55 55 53 49 48 49 46 45 45 45 45 48 51 56 55 62 58 58 52 49 48 48 48 36 38 26 25 32 32 29 24 22 17
54 51 50 51 49 54 47 54 60 59 57 56 54 51 48 46 47 48 45 43 42 42 43 43 45 52 54 61 58 57 53 49 49 49 48 39 44 28 28 26 33 31 24 23 20
50 48 46 48 53 55 58 59 61 58 58 54 49 48 47 46 46 45 42 40 37 37 39 42 47 45 59 55 63 58 56 50 51 51 50 43 42 32 29 27 32 35 26 24 24
47 47 49 49 51 54 60 60 60 60 61 54 51 49 46 43 43 41 40 40 37 36 37 38 41 44 43 66 61 60 57 54 54 54 53 48 41 34 29 28 31 31 29 28 25
43 44 46 49 51 56 60 57 51 53 57 55 53 51 51 48 45 42 41 40 38 36 36 39 35 42 39 51 54 65 62 57 56 56 53 49 39 34 30 30 27 33 34 31 28
44 44 47 48 53 56 53 53 53 52 50 57 58 51 50 48 45 43 42 40 38 39 37 36 38 34 46 45 47 65 61 58 57 56 55 50 41 35 34 28 24 32 34 32 32
40 41 45 48 50 51 52 50 50 50 52 51 54 55 54 51 49 46 43 43 43 42 43 40 42 40 37 43 43 51 61 62 60 60 59 53 44 36 33 28 24 31 32 36 33
38 39 41 44 45 48 50 50 50 49 48 50 52 54 52 52 51 49 48 45 45 45 45 46 45 45 43 42 29 43 59 58 65 64 60 57 43 40 37 32 27 30 32 35 36
38 40 43 45 45 46 50 49 50 51 51 51 53 53 55 55 52 50 50 48 47 48 48 44 44 42 36 52 48 37 42 59 63 63 65 56 49 41 37 38 32 30 32 35 37
38 40 44 46 49 50 50 49 52 51 51 52 51 56 56 56 54 52 51 50 51 50 48 44 42 44 39 37 39 41 37 44 64 63 65 62 54 45 41 46 39 32 33 35 37
40 43 46 46 47 50 50 52 53 51 54 52 56 58 58 55 57 55 52 50 49 52 47 44 48 49 47 43 47 39 35 33 42 63 66 64 51 48 44 44 39 36 37 39 38
Wind_Direction
261 258 252 251 246 244 242 244 244 244 244 244 244 243 241 243 250 249 249 249 255 264 270 270 272 272 266 259 252 245 246 253 253 254 250 252 251 237 262 263 270 271 261 327 354
261 258 252 250 253 247 244 243 242 242 240 240 240 241 241 241 243 248 248 247 247 253 259 268 269 270 269 266 260 248 245 251 253 253 251 246 244 235 261 257 268 258 254 316 343
262 261 255 249 250 249 249 247 244 243 242 241 239 239 238 240 241 243 248 248 247 247 251 258 265 266 268 267 264 252 247 247 251 251 250 244 239 239 259 253 263 249 252 295 330
264 259 257 247 246 246 246 247 248 245 244 243 241 240 239 237 237 240 242 246 247 247 248 251 258 262 263 266 264 258 250 246 245 250 249 244 234 237 249 258 252 239 259 289 310
259 258 255 252 247 247 246 246 246 242 242 243 242 241 239 239 236 236 239 241 244 245 247 249 252 258 261 261 262 259 254 245 243 246 247 241 233 235 246 255 247 243 267 298 321
259 256 255 252 248 248 246 248 248 247 247 243 242 242 242 241 238 235 236 237 240 243 244 247 250 254 257 258 259 258 255 248 241 244 247 241 231 232 244 252 254 240 257 302 319
259 256 251 250 248 247 247 248 250 250 249 249 245 242 242 242 242 239 237 237 237 239 242 244 247 253 256 257 257 257 256 252 244 244 246 242 233 226 249 248 252 243 264 296 308
257 255 252 247 246 246 247 245 247 249 248 246 243 243 239 238 240 242 242 238 239 237 239 242 245 249 254 258 258 258 258 256 246 240 241 243 231 229 235 246 248 247 256 283 306
256 254 251 247 244 244 243 244 245 247 244 244 241 239 239 238 238 238 239 242 240 241 239 239 241 245 250 254 258 260 260 256 248 241 239 241 229 231 233 240 246 243 249 272 304
255 254 252 247 244 242 243 242 241 242 244 242 239 240 237 238 239 237 239 239 239 241 242 242 243 242 246 249 255 259 255 253 254 245 240 238 231 232 231 239 249 243 242 258 292
254 252 251 249 246 243 241 241 242 241 238 241 238 240 236 238 237 237 237 239 241 241 240 242 244 249 244 242 248 254 256 257 255 250 241 235 231 234 232 235 246 240 240 246 279
251 249 247 248 247 242 242 241 241 240 238 236 235 237 237 236 238 237 238 240 242 242 241 241 243 245 244 243 247 251 256 258 255 251 245 236 228 234 233 226 240 238 238 241 271
248 246 244 244 245 244 242 241 240 239 237 235 231 233 237 238 239 241 243 242 241 242 240 240 241 243 244 243 245 248 252 255 256 253 248 238 228 235 235 221 235 237 235 234 259
244 245 245 243 242 243 244 240 241 240 238 233 232 232 234 236 235 236 238 241 241 243 240 239 239 240 243 245 242 245 248 251 255 255 249 242 233 231 233 226 231 237 233 232 245
245 245 245 244 244 243 242 242 240 241 239 235 232 232 235 237 238 240 240 241 241 242 241 240 239 241 241 244 242 242 244 249 252 253 250 240 244 212 233 230 227 234 231 232 231
248 245 243 243 243 243 242 240 239 237 237 236 233 233 236 237 239 239 241 242 242 240 240 241 240 241 241 239 238 240 240 245 249 250 249 239 243 221 227 234 225 234 232 231 227
241 240 246 234 242 241 240 238 238 236 234 236 236 233 233 235 237 241 242 242 243 245 243 246 244 243 247 233 233 237 238 241 244 246 247 240 237 229 228 230 228 232 228 229 226
247 249 249 246 235 240 236 238 236 237 236 241 237 234 233 234 237 241 242 243 244 247 248 249 246 247 247 241 232 233 235 238 244 246 248 241 235 226 232 227 231 227 225 227 226
244 244 244 248 237 235 239 234 230 233 235 237 238 238 235 238 240 241 242 242 242 243 243 244 244 246 240 245 228 231 234 234 238 243 245 240 235 226 230 232 227 228 224 223 222
244 244 242 241 240 241 239 240 237 234 235 235 235 234 236 236 238 239 240 241 243 242 242 246 251 248 246 245 236 225 228 230 235 238 241 239 233 227 229 234 227 226 221 220 227
244 244 243 238 237 238 239 244 238 234 236 235 232 234 235 236 238 239 239 238 238 240 242 242 251 248 243 246 248 225 224 226 229 234 238 242 234 227 227 236 229 224 220 216 219
243 243 242 237 235 237 240 242 242 242 233 237 234 231 232 234 236 238 238 238 234 231 234 235 239 241 245 245 247 228 220 223 229 233 237 239 233 224 228 232 228 222 223 221 222
243 241 239 237 236 237 238 235 236 240 243 236 235 231 231 235 238 236 235 236 234 230 232 232 235 244 239 249 245 237 224 222 226 230 232 232 225 227 228 227 225 221 222 219 224
240 239 240 237 234 234 234 235 235 234 235 239 237 232 231 233 235 234 234 235 238 235 236 237 237 241 244 239 246 241 229 225 224 229 233 234 228 223 226 228 228 224 221 219 221
242 240 240 239 236 235 233 231 233 232 231 230 234 234 232 236 236 233 236 236 236 237 236 240 239 240 249 239 243 254 238 232 231 226 232 231 229 224 223 226 221 227 223 218 220
241 241 239 237 236 236 238 235 231 234 231 229 230 231 233 236 235 234 238 238 236 235 237 235 235 238 230 240 248 252 249 236 228 227 229 232 227 223 219 227 222 223 222 221 220
242 240 238 237 238 236 235 235 235 234 233 229 230 229 231 232 233 233 233 234 233 235 235 236 236 236 234 231 236 240 245 258 237 229 232 232 227 227 221 225 225 219 221 220 219
Height
5762 5767 5767 5769 5769 5773 5775 5778 5780 5783 5787 5790 5793 5796 5798 5800 5804 5806 5808 5810 5811 5812 5814 5815 5816 5818 5818 5818 5817 5818 5819 5819 5819 5819 5820 5820 5820 5821 5821 5821 5820 5820 5819 5817 5814
5751 5753 5756 5760 5762 5763 5766 5768 5771 5774 5776 5779 5783 5787 5790 5792 5795 5799 5802 5804 5805 5807 5808 5810 5811 5813 5814 5814 5815 5814 5815 5816 5816 5817 5817 5817 5818 5819 5819 5819 5818 5818 5817 5814 5812
5740 5741 5745 5748 5751 5754 5757 5759 5761 5765 5767 5771 5773 5776 5779 5783 5787 5790 5794 5797 5800 5802 5803 5805 5806 5808 5809 5810 5811 5811 5812 5812 5813 5813 5814 5815 5815 5816 5816 5816 5815 5815 5814 5812 5810
5728 5731 5733 5736 5739 5743 5747 5749 5751 5754 5758 5761 5764 5767 5769 5772 5778 5781 5785 5789 5792 5795 5797 5799 5800 5802 5804 5806 5806 5808 5808 5808 5809 5810 5811 5811 5812 5813 5813 5813 5812 5812 5810 5809 5807
5715 5718 5721 5724 5728 5731 5734 5737 5740 5742 5745 5749 5753 5757 5760 5764 5767 5771 5775 5779 5784 5787 5790 5793 5795 5796 5798 5800 5802 5803 5803 5804 5805 5806 5807 5808 5809 5810 5809 5809 5810 5809 5807 5806 5805
5702 5705 5707 5712 5715 5719 5721 5725 5728 5732 5734 5737 5742 5746 5750 5754 5757 5761 5766 5769 5774 5778 5782 5786 5789 5790 5792 5795 5797 5799 5799 5799 5801 5802 5803 5804 5806 5806 5806 5806 5807 5806 5804 5803 5802
5687 5691 5694 5698 5702 5705 5708 5711 5715 5718 5722 5727 5730 5735 5740 5744 5749 5752 5756 5761 5764 5768 5773 5777 5781 5784 5787 5788 5791 5792 5794 5795 5796 5797 5799 5800 5802 5803 5802 5803 5803 5803 5801 5801 5800
5672 5676 5680 5685 5689 5692 5696 5698 5703 5707 5710 5714 5718 5723 5727 5732 5737 5743 5747 5751 5755 5759 5763 5768 5772 5776 5779 5782 5785 5786 5788 5790 5791 5791 5794 5795 5798 5797 5799 5799 5799 5799 5798 5797 5797
5658 5661 5666 5670 5675 5679 5683 5688 5692 5695 5698 5702 5708 5712 5717 5722 5726 5731 5736 5741 5746 5750 5754 5758 5762 5767 5772 5775 5778 5781 5783 5784 5785 5785 5787 5790 5793 5793 5794 5795 5795 5796 5795 5794 5794
5645 5647 5651 5655 5661 5666 5670 5675 5679 5683 5687 5691 5697 5703 5707 5712 5716 5721 5725 5730 5736 5741 5745 5750 5754 5759 5764 5767 5771 5774 5774 5777 5779 5781 5782 5784 5788 5787 5789 5791 5791 5792 5792 5790 5790
5630 5635 5638 5643 5648 5653 5659 5662 5668 5672 5676 5682 5687 5692 5695 5701 5705 5710 5715 5720 5725 5730 5735 5740 5746 5753 5757 5757 5760 5764 5768 5771 5773 5773 5775 5778 5781 5781 5783 5787 5787 5788 5788 5787 5787
5616 5621 5626 5630 5634 5640 5645 5649 5653 5659 5664 5669 5676 5682 5686 5690 5695 5700 5706 5711 5715 5720 5725 5731 5738 5741 5745 5749 5753 5756 5760 5765 5765 5766 5768 5770 5775 5775 5777 5782 5782 5783 5784 5784 5784
5602 5606 5612 5618 5621 5627 5631 5636 5640 5644 5650 5658 5664 5671 5677 5681 5685 5690 5695 5699 5704 5709 5714 5720 5727 5731 5736 5740 5745 5748 5752 5757 5758 5760 5761 5764 5768 5769 5772 5776 5777 5779 5780 5780 5780
5589 5592 5598 5603 5608 5613 5618 5621 5627 5631 5637 5649 5653 5659 5667 5671 5676 5681 5685 5690 5694 5699 5702 5707 5713 5720 5726 5731 5734 5739 5744 5748 5751 5752 5754 5758 5759 5763 5766 5770 5772 5774 5776 5776 5776
5576 5580 5585 5590 5595 5601 5606 5610 5615 5620 5624 5636 5641 5649 5656 5660 5671 5673 5676 5679 5684 5688 5692 5698 5703 5708 5716 5723 5725 5731 5734 5739 5742 5743 5746 5751 5751 5761 5760 5764 5767 5769 5771 5772 5772
5563 5567 5574 5580 5582 5587 5592 5597 5603 5605 5610 5620 5629 5637 5644 5650 5657 5661 5665 5669 5673 5676 5680 5685 5690 5697 5704 5710 5714 5720 5725 5729 5733 5735 5735 5745 5745 5754 5756 5758 5761 5763 5767 5768 5768
5546 5553 5559 5567 5570 5573 5577 5584 5586 5586 5603 5610 5619 5626 5631 5637 5644 5648 5654 5657 5661 5665 5670 5674 5678 5684 5691 5697 5703 5709 5715 5719 5723 5725 5725 5738 5737 5747 5748 5751 5754 5757 5761 5764 5764
5531 5539 5543 5550 5555 5556 5564 5567 5566 5585 5591 5598 5605 5613 5620 5626 5632 5637 5641 5646 5651 5654 5659 5663 5668 5672 5679 5685 5693 5699 5704 5711 5713 5716 5719 5727 5725 5740 5742 5744 5748 5751 5755 5758 5760
5518 5525 5531 5535 5539 5544 5544 5547 5557 5571 5577 5585 5593 5599 5608 5615 5622 5625 5630 5636 5640 5645 5647 5650 5654 5660 5666 5672 5677 5686 5693 5702 5703 5705 5709 5716 5721 5731 5735 5738 5741 5744 5749 5753 5755
5503 5511 5517 5521 5525 5525 5527 5533 5548 5558 5561 5572 5580 5588 5595 5602 5608 5613 5618 5625 5629 5633 5635 5639 5643 5647 5654 5659 5666 5672 5683 5689 5693 5694 5697 5704 5713 5722 5729 5730 5733 5738 5743 5746 5749
5488 5497 5501 5506 5510 5510 5512 5525 5537 5544 5554 5560 5568 5574 5581 5589 5596 5602 5608 5615 5618 5622 5625 5630 5633 5637 5642 5648 5655 5661 5668 5676 5681 5683 5688 5695 5706 5716 5720 5723 5727 5730 5734 5738 5742
5475 5483 5486 5491 5496 5499 5509 5518 5525 5531 5541 5546 5555 5563 5569 5577 5583 5589 5597 5602 5607 5611 5615 5619 5621 5626 5631 5636 5641 5648 5655 5663 5670 5676 5679 5686 5699 5707 5712 5716 5719 5723 5727 5732 5735
5463 5469 5473 5478 5483 5490 5496 5505 5512 5520 5526 5533 5540 5549 5557 5565 5571 5579 5585 5589 5594 5600 5605 5609 5612 5617 5621 5627 5629 5634 5644 5652 5659 5662 5666 5674 5689 5698 5704 5708 5711 5715 5719 5724 5728
5452 5457 5461 5466 5472 5478 5483 5490 5499 5508 5514 5519 5525 5535 5544 5551 5558 5565 5572 5577 5582 5589 5594 5597 5602 5609 5614 5618 5621 5622 5631 5639 5645 5649 5658 5661 5680 5690 5694 5700 5705 5707 5711 5716 5720
5439 5445 5448 5454 5459 5463 5468 5480 5485 5491 5499 5507 5513 5522 5530 5537 5545 5553 5560 5566 5571 5575 5581 5587 5592 5597 5603 5606 5609 5614 5617 5623 5629 5640 5642 5658 5666 5678 5686 5689 5693 5698 5703 5707 5712
5427 5432 5435 5441 5444 5451 5456 5466 5471 5479 5487 5495 5504 5509 5515 5523 5536 5542 5547 5552 5558 5565 5570 5577 5581 5586 5592 5596 5601 5602 5608 5611 5620 5628 5630 5640 5650 5666 5675 5676 5684 5690 5695 5699 5704
5414 5418 5420 5428 5433 5437 5444 5450 5458 5466 5473 5483 5487 5493 5501 5515 5517 5524 5532 5540 5546 5552 5559 5565 5570 5576 5581 5586 5589 5593 5604 5606 5612 5618 5623 5626 5645 5657 5661 5669 5675 5679 5683 5689 5694